Year,Month,Day,Hour,Minute,Value (Times are PST for temperature in C)
2016,08,12,00,00,23.00
2016,08,12,00,01,22.90
2016,08,12,00,02,23.00
2016,08,12,00,03,22.90
2016,08,12,00,04,22.90
2016,08,12,00,05,22.90
2016,08,12,00,06,22.90
2016,08,12,00,07,22.90
2016,08,12,00,08,22.90
2016,08,12,00,09,22.90
2016,08,12,00,10,22.90
2016,08,12,00,11,22.80
2016,08,12,00,12,22.80
2016,08,12,00,13,22.80
2016,08,12,00,14,22.80
2016,08,12,00,15,22.80
2016,08,12,00,16,22.80
2016,08,12,00,17,22.80
2016,08,12,00,18,22.80
2016,08,12,00,19,22.80
2016,08,12,00,20,22.80
2016,08,12,00,21,22.80
2016,08,12,00,22,22.70
2016,08,12,00,23,22.70
2016,08,12,00,24,22.70
2016,08,12,00,25,22.70
2016,08,12,00,26,22.70
2016,08,12,00,27,22.70
2016,08,12,00,28,22.70
2016,08,12,00,29,22.70
2016,08,12,00,30,22.70
2016,08,12,00,31,22.60
2016,08,12,00,32,22.60
2016,08,12,00,33,22.60
2016,08,12,00,34,22.60
2016,08,12,00,35,22.60
2016,08,12,00,36,22.60
2016,08,12,00,37,22.50
2016,08,12,00,38,22.50
2016,08,12,00,39,22.50
2016,08,12,00,40,22.40
2016,08,12,00,41,22.40
2016,08,12,00,42,22.40
2016,08,12,00,43,22.40
2016,08,12,00,44,22.40
2016,08,12,00,45,22.30
2016,08,12,00,46,22.30
2016,08,12,00,47,22.30
2016,08,12,00,48,22.30
2016,08,12,00,49,22.30
2016,08,12,00,50,22.30
2016,08,12,00,51,22.30
2016,08,12,00,52,22.30
2016,08,12,00,53,22.20
2016,08,12,00,54,22.20
2016,08,12,00,55,22.20
2016,08,12,00,56,22.20
2016,08,12,00,57,22.20
2016,08,12,00,58,22.20
2016,08,12,00,59,22.20
2016,08,12,01,00,22.10
2016,08,12,01,01,22.10
2016,08,12,01,02,22.10
2016,08,12,01,03,22.10
2016,08,12,01,04,22.10
2016,08,12,01,05,22.10
2016,08,12,01,06,22.10
2016,08,12,01,07,22.10
2016,08,12,01,08,22.10
2016,08,12,01,09,22.00
2016,08,12,01,10,22.00
2016,08,12,01,11,22.00
2016,08,12,01,12,22.00
2016,08,12,01,13,21.90
2016,08,12,01,14,21.90
2016,08,12,01,15,21.90
2016,08,12,01,16,21.90
2016,08,12,01,17,21.90
2016,08,12,01,18,21.90
2016,08,12,01,19,21.90
2016,08,12,01,20,21.90
2016,08,12,01,21,21.80
2016,08,12,01,22,21.80
2016,08,12,01,23,21.80
2016,08,12,01,24,21.80
2016,08,12,01,25,21.80
2016,08,12,01,26,21.80
2016,08,12,01,27,21.80
2016,08,12,01,28,21.80
2016,08,12,01,29,21.80
2016,08,12,01,30,21.70
2016,08,12,01,31,21.70
2016,08,12,01,32,21.70
2016,08,12,01,33,21.70
2016,08,12,01,34,21.70
2016,08,12,01,35,21.70
2016,08,12,01,36,21.70
2016,08,12,01,37,21.70
2016,08,12,01,38,21.70
2016,08,12,01,39,21.60
2016,08,12,01,40,21.60
2016,08,12,01,41,21.60
2016,08,12,01,42,21.60
2016,08,12,01,43,21.60
2016,08,12,01,44,21.60
2016,08,12,01,45,21.60
2016,08,12,01,46,21.60
2016,08,12,01,47,21.60
2016,08,12,01,48,21.50
2016,08,12,01,49,21.50
2016,08,12,01,50,21.50
2016,08,12,01,51,21.50
2016,08,12,01,52,21.50
2016,08,12,01,53,21.40
2016,08,12,01,54,21.40
2016,08,12,01,55,21.40
2016,08,12,01,56,21.40
2016,08,12,01,57,21.40
2016,08,12,01,58,21.40
2016,08,12,01,59,21.40
2016,08,12,02,00,21.40
2016,08,12,02,01,21.30
2016,08,12,02,02,21.30
2016,08,12,02,03,21.30
2016,08,12,02,04,21.30
2016,08,12,02,05,21.30
2016,08,12,02,06,21.30
2016,08,12,02,07,21.30
2016,08,12,02,08,21.30
2016,08,12,02,09,21.30
2016,08,12,02,10,21.30
2016,08,12,02,11,21.20
2016,08,12,02,12,21.20
2016,08,12,02,13,21.20
2016,08,12,02,14,21.20
2016,08,12,02,15,21.20
2016,08,12,02,16,21.20
2016,08,12,02,17,21.20
2016,08,12,02,18,21.20
2016,08,12,02,19,21.20
2016,08,12,02,20,21.20
2016,08,12,02,21,21.20
2016,08,12,02,22,21.20
2016,08,12,02,23,21.20
2016,08,12,02,24,21.20
2016,08,12,02,25,21.20
2016,08,12,02,26,21.20
2016,08,12,02,27,21.20
2016,08,12,02,28,21.20
2016,08,12,02,29,21.10
2016,08,12,02,30,21.10
2016,08,12,02,31,21.10
2016,08,12,02,32,21.10
2016,08,12,02,33,21.10
2016,08,12,02,34,21.10
2016,08,12,02,35,21.10
2016,08,12,02,36,21.10
2016,08,12,02,37,21.10
2016,08,12,02,38,21.10
2016,08,12,02,39,21.10
2016,08,12,02,40,21.00
2016,08,12,02,41,21.00
2016,08,12,02,42,21.00
2016,08,12,02,43,21.00
2016,08,12,02,44,20.90
2016,08,12,02,45,20.90
2016,08,12,02,46,20.90
2016,08,12,02,47,20.90
2016,08,12,02,48,20.90
2016,08,12,02,49,20.90
2016,08,12,02,50,20.80
2016,08,12,02,51,20.80
2016,08,12,02,52,20.80
2016,08,12,02,53,20.80
2016,08,12,02,54,20.80
2016,08,12,02,55,20.80
2016,08,12,02,56,20.70
2016,08,12,02,57,20.70
2016,08,12,02,58,20.70
2016,08,12,02,59,20.70
2016,08,12,03,00,20.70
2016,08,12,03,01,20.70
2016,08,12,03,02,20.70
2016,08,12,03,03,20.70
2016,08,12,03,04,20.70
2016,08,12,03,05,20.70
2016,08,12,03,06,20.60
2016,08,12,03,07,20.60
2016,08,12,03,08,20.60
2016,08,12,03,09,20.60
2016,08,12,03,10,20.60
2016,08,12,03,11,20.60
2016,08,12,03,12,20.60
2016,08,12,03,13,20.60
2016,08,12,03,14,20.60
2016,08,12,03,15,20.60
2016,08,12,03,16,20.60
2016,08,12,03,17,20.50
2016,08,12,03,18,20.50
2016,08,12,03,19,20.50
2016,08,12,03,20,20.50
2016,08,12,03,21,20.50
2016,08,12,03,22,20.50
2016,08,12,03,23,20.50
2016,08,12,03,24,20.50
2016,08,12,03,25,20.50
2016,08,12,03,26,20.50
2016,08,12,03,27,20.40
2016,08,12,03,28,20.40
2016,08,12,03,29,20.40
2016,08,12,03,30,20.40
2016,08,12,03,31,20.40
2016,08,12,03,32,20.40
2016,08,12,03,33,20.40
2016,08,12,03,34,20.40
2016,08,12,03,35,20.40
2016,08,12,03,36,20.40
2016,08,12,03,37,20.40
2016,08,12,03,38,20.40
2016,08,12,03,39,20.40
2016,08,12,03,40,20.40
2016,08,12,03,41,20.40
2016,08,12,03,42,20.40
2016,08,12,03,43,20.30
2016,08,12,03,44,20.30
2016,08,12,03,45,20.30
2016,08,12,03,46,20.30
2016,08,12,03,47,20.30
2016,08,12,03,48,20.30
2016,08,12,03,49,20.30
2016,08,12,03,50,20.30
2016,08,12,03,51,20.30
2016,08,12,03,52,20.30
2016,08,12,03,53,20.30
2016,08,12,03,54,20.30
2016,08,12,03,55,20.30
2016,08,12,03,56,20.30
2016,08,12,03,57,20.30
2016,08,12,03,58,20.30
2016,08,12,03,59,20.30
2016,08,12,04,00,20.20
2016,08,12,04,01,20.20
2016,08,12,04,02,20.20
2016,08,12,04,03,20.20
2016,08,12,04,04,20.20
2016,08,12,04,05,20.20
2016,08,12,04,06,20.20
2016,08,12,04,07,20.20
2016,08,12,04,08,20.20
2016,08,12,04,09,20.20
2016,08,12,04,10,20.20
2016,08,12,04,11,20.20
2016,08,12,04,12,20.20
2016,08,12,04,13,20.20
2016,08,12,04,14,20.10
2016,08,12,04,15,20.10
2016,08,12,04,16,20.10
2016,08,12,04,17,20.10
2016,08,12,04,18,20.10
2016,08,12,04,19,20.10
2016,08,12,04,20,20.10
2016,08,12,04,21,20.10
2016,08,12,04,22,20.10
2016,08,12,04,23,20.00
2016,08,12,04,24,20.00
2016,08,12,04,25,20.00
2016,08,12,04,26,20.00
2016,08,12,04,27,19.90
2016,08,12,04,28,20.00
2016,08,12,04,29,19.90
2016,08,12,04,30,19.90
2016,08,12,04,31,19.90
2016,08,12,04,32,19.90
2016,08,12,04,33,19.90
2016,08,12,04,34,19.90
2016,08,12,04,35,19.90
2016,08,12,04,36,19.90
2016,08,12,04,37,19.90
2016,08,12,04,38,19.90
2016,08,12,04,39,19.90
2016,08,12,04,40,19.90
2016,08,12,04,41,19.90
2016,08,12,04,42,19.90
2016,08,12,04,43,19.90
2016,08,12,04,44,19.90
2016,08,12,04,45,19.90
2016,08,12,04,46,19.90
2016,08,12,04,47,19.90
2016,08,12,04,48,19.90
2016,08,12,04,49,19.90
2016,08,12,04,50,19.90
2016,08,12,04,51,19.90
2016,08,12,04,52,19.90
2016,08,12,04,53,19.90
2016,08,12,04,54,19.90
2016,08,12,04,55,19.90
2016,08,12,04,56,19.90
2016,08,12,04,57,19.90
2016,08,12,04,58,19.90
2016,08,12,04,59,19.90
2016,08,12,05,00,20.00
2016,08,12,05,01,20.00
2016,08,12,05,02,20.00
2016,08,12,05,03,20.10
2016,08,12,05,04,20.10
2016,08,12,05,05,20.10
2016,08,12,05,06,20.10
2016,08,12,05,07,20.10
2016,08,12,05,08,20.10
2016,08,12,05,09,20.10
2016,08,12,05,10,20.20
2016,08,12,05,11,20.20
2016,08,12,05,12,20.20
2016,08,12,05,13,20.20
2016,08,12,05,14,20.20
2016,08,12,05,15,20.20
2016,08,12,05,16,20.20
2016,08,12,05,17,20.20
2016,08,12,05,18,20.20
2016,08,12,05,19,20.20
2016,08,12,05,20,20.20
2016,08,12,05,21,20.20
2016,08,12,05,22,20.20
2016,08,12,05,23,20.20
2016,08,12,05,24,20.20
2016,08,12,05,25,20.10
2016,08,12,05,26,20.10
2016,08,12,05,27,20.10
2016,08,12,05,28,20.00
2016,08,12,05,29,20.00
2016,08,12,05,30,19.90
2016,08,12,05,31,19.90
2016,08,12,05,32,19.90
2016,08,12,05,33,19.90
2016,08,12,05,34,19.80
2016,08,12,05,35,19.80
2016,08,12,05,36,19.80
2016,08,12,05,37,19.80
2016,08,12,05,38,19.80
2016,08,12,05,39,19.80
2016,08,12,05,40,19.80
2016,08,12,05,41,19.80
2016,08,12,05,42,19.80
2016,08,12,05,43,19.80
2016,08,12,05,44,19.80
2016,08,12,05,45,19.80
2016,08,12,05,46,19.80
2016,08,12,05,47,19.80
2016,08,12,05,48,19.80
2016,08,12,05,49,19.80
2016,08,12,05,50,19.80
2016,08,12,05,51,19.80
2016,08,12,05,52,19.70
2016,08,12,05,53,19.70
2016,08,12,05,54,19.70
2016,08,12,05,55,19.70
2016,08,12,05,56,19.70
2016,08,12,05,57,19.70
2016,08,12,05,58,19.70
2016,08,12,05,59,19.70
2016,08,12,06,00,19.70
2016,08,12,06,01,19.70
2016,08,12,06,02,19.70
2016,08,12,06,03,19.70
2016,08,12,06,04,19.70
2016,08,12,06,05,19.70
2016,08,12,06,06,19.70
2016,08,12,06,07,19.70
2016,08,12,06,08,19.70
2016,08,12,06,09,19.70
2016,08,12,06,10,19.70
2016,08,12,06,11,19.70
2016,08,12,06,12,19.70
2016,08,12,06,13,19.70
2016,08,12,06,14,19.70
2016,08,12,06,15,19.70
2016,08,12,06,16,19.70
2016,08,12,06,17,19.70
2016,08,12,06,18,19.70
2016,08,12,06,19,19.70
2016,08,12,06,20,19.70
2016,08,12,06,21,19.70
2016,08,12,06,22,19.70
2016,08,12,06,23,19.70
2016,08,12,06,24,19.70
2016,08,12,06,25,19.70
2016,08,12,06,26,19.70
2016,08,12,06,27,19.70
2016,08,12,06,28,19.70
2016,08,12,06,29,19.70
2016,08,12,06,30,19.80
2016,08,12,06,31,19.80
2016,08,12,06,32,19.80
2016,08,12,06,33,19.80
2016,08,12,06,34,19.80
2016,08,12,06,35,19.80
2016,08,12,06,36,19.80
2016,08,12,06,37,19.90
2016,08,12,06,38,19.90
2016,08,12,06,39,19.90
2016,08,12,06,40,19.90
2016,08,12,06,41,19.90
2016,08,12,06,42,19.90
2016,08,12,06,43,19.90
2016,08,12,06,44,19.90
2016,08,12,06,45,19.90
2016,08,12,06,46,19.90
2016,08,12,06,47,19.90
2016,08,12,06,48,19.90
2016,08,12,06,49,19.90
2016,08,12,06,50,19.90
2016,08,12,06,51,19.90
2016,08,12,06,52,19.90
2016,08,12,06,53,19.80
2016,08,12,06,54,19.80
2016,08,12,06,55,19.80
2016,08,12,06,56,19.80
2016,08,12,06,57,19.80
2016,08,12,06,58,19.80
2016,08,12,06,59,19.80
2016,08,12,07,00,19.90
2016,08,12,07,01,19.90
2016,08,12,07,02,19.90
2016,08,12,07,03,19.90
2016,08,12,07,04,19.90
2016,08,12,07,05,19.90
2016,08,12,07,06,19.90
2016,08,12,07,07,19.90
2016,08,12,07,08,20.00
2016,08,12,07,09,20.00
2016,08,12,07,10,20.00
2016,08,12,07,11,20.00
2016,08,12,07,12,20.00
2016,08,12,07,13,20.10
2016,08,12,07,14,20.10
2016,08,12,07,15,20.10
2016,08,12,07,16,20.10
2016,08,12,07,17,20.10
2016,08,12,07,18,20.10
2016,08,12,07,19,20.10
2016,08,12,07,20,20.20
2016,08,12,07,21,20.20
2016,08,12,07,22,20.20
2016,08,12,07,23,20.20
2016,08,12,07,24,20.20
2016,08,12,07,25,20.20
2016,08,12,07,26,20.20
2016,08,12,07,27,20.30
2016,08,12,07,28,20.30
2016,08,12,07,29,20.30
2016,08,12,07,30,20.30
2016,08,12,07,31,20.30
2016,08,12,07,32,20.40
2016,08,12,07,33,20.40
2016,08,12,07,34,20.40
2016,08,12,07,35,20.40
2016,08,12,07,36,20.40
2016,08,12,07,37,20.40
2016,08,12,07,38,20.50
2016,08,12,07,39,20.50
2016,08,12,07,40,20.50
2016,08,12,07,41,20.50
2016,08,12,07,42,20.60
2016,08,12,07,43,20.60
2016,08,12,07,44,20.60
2016,08,12,07,45,20.60
2016,08,12,07,46,20.60
2016,08,12,07,47,20.60
2016,08,12,07,48,20.60
2016,08,12,07,49,20.60
2016,08,12,07,50,20.60
2016,08,12,07,51,20.60
2016,08,12,07,52,20.60
2016,08,12,07,53,20.60
2016,08,12,07,54,20.60
2016,08,12,07,55,20.60
2016,08,12,07,56,20.60
2016,08,12,07,57,20.60
2016,08,12,07,58,20.60
2016,08,12,07,59,20.60
2016,08,12,08,00,20.60
2016,08,12,08,01,20.60
2016,08,12,08,02,20.70
2016,08,12,08,03,20.70
2016,08,12,08,04,20.70
2016,08,12,08,05,20.70
2016,08,12,08,06,20.70
2016,08,12,08,07,20.70
2016,08,12,08,08,20.70
2016,08,12,08,09,20.70
2016,08,12,08,10,20.70
2016,08,12,08,11,20.70
2016,08,12,08,12,20.70
2016,08,12,08,13,20.80
2016,08,12,08,14,20.80
2016,08,12,08,15,20.80
2016,08,12,08,16,20.80
2016,08,12,08,17,20.80
2016,08,12,08,18,20.80
2016,08,12,08,19,20.80
2016,08,12,08,20,20.80
2016,08,12,08,21,20.90
2016,08,12,08,22,20.90
2016,08,12,08,23,20.90
2016,08,12,08,24,20.90
2016,08,12,08,25,20.90
2016,08,12,08,26,20.90
2016,08,12,08,27,21.00
2016,08,12,08,28,21.00
2016,08,12,08,29,21.00
2016,08,12,08,30,21.10
2016,08,12,08,31,21.10
2016,08,12,08,32,21.10
2016,08,12,08,33,21.10
2016,08,12,08,34,21.10
2016,08,12,08,35,21.20
2016,08,12,08,36,21.20
2016,08,12,08,37,21.20
2016,08,12,08,38,21.20
2016,08,12,08,39,21.30
2016,08,12,08,40,21.30
2016,08,12,08,41,21.30
2016,08,12,08,42,21.30
2016,08,12,08,43,21.30
2016,08,12,08,44,21.30
2016,08,12,08,45,21.30
2016,08,12,08,46,21.30
2016,08,12,08,47,21.30
2016,08,12,08,48,21.30
2016,08,12,08,49,21.30
2016,08,12,08,50,21.30
2016,08,12,08,51,21.30
2016,08,12,08,52,21.30
2016,08,12,08,53,21.30
2016,08,12,08,54,21.30
2016,08,12,08,55,21.30
2016,08,12,08,56,21.30
2016,08,12,08,57,21.30
2016,08,12,08,58,21.30
2016,08,12,08,59,21.30
2016,08,12,09,00,21.30
2016,08,12,09,01,21.30
2016,08,12,09,02,21.30
2016,08,12,09,03,21.30
2016,08,12,09,04,21.30
2016,08,12,09,05,21.30
2016,08,12,09,06,21.30
2016,08,12,09,07,21.30
2016,08,12,09,08,21.30
2016,08,12,09,09,21.30
2016,08,12,09,10,21.30
2016,08,12,09,11,21.30
2016,08,12,09,12,21.30
2016,08,12,09,13,21.30
2016,08,12,09,14,21.30
2016,08,12,09,15,21.30
2016,08,12,09,16,21.30
2016,08,12,09,17,21.30
2016,08,12,09,18,21.30
2016,08,12,09,19,21.30
2016,08,12,09,20,21.30
2016,08,12,09,21,21.30
2016,08,12,09,22,21.30
2016,08,12,09,23,21.30
2016,08,12,09,24,21.40
2016,08,12,09,25,21.40
2016,08,12,09,26,21.40
2016,08,12,09,27,21.40
2016,08,12,09,28,21.40
2016,08,12,09,29,21.50
2016,08,12,09,30,21.50
2016,08,12,09,31,21.50
2016,08,12,09,32,21.40
2016,08,12,09,33,21.40
2016,08,12,09,34,21.40
2016,08,12,09,35,21.40
2016,08,12,09,36,21.40
2016,08,12,09,37,21.40
2016,08,12,09,38,21.50
2016,08,12,09,39,21.50
2016,08,12,09,40,21.50
2016,08,12,09,41,21.50
2016,08,12,09,42,21.50
2016,08,12,09,43,21.60
2016,08,12,09,44,21.60
2016,08,12,09,45,21.60
2016,08,12,09,46,21.60
2016,08,12,09,47,21.50
2016,08,12,09,48,21.50
2016,08,12,09,49,21.40
2016,08,12,09,50,21.40
2016,08,12,09,51,21.30
2016,08,12,09,52,21.30
2016,08,12,09,53,21.30
2016,08,12,09,54,21.30
2016,08,12,09,55,21.30
2016,08,12,09,56,21.40
2016,08,12,09,57,21.40
2016,08,12,09,58,21.40
2016,08,12,09,59,21.50
2016,08,12,10,00,21.50
2016,08,12,10,01,21.50
2016,08,12,10,02,21.50
2016,08,12,10,03,21.50
2016,08,12,10,04,21.50
2016,08,12,10,05,21.50
2016,08,12,10,06,21.50
2016,08,12,10,07,21.50
2016,08,12,10,08,21.40
2016,08,12,10,09,21.40
2016,08,12,10,10,21.40
2016,08,12,10,11,21.30
2016,08,12,10,12,21.30
2016,08,12,10,13,21.40
2016,08,12,10,14,21.40
2016,08,12,10,15,21.50
2016,08,12,10,16,21.60
2016,08,12,10,17,21.60
2016,08,12,10,18,21.70
2016,08,12,10,19,21.70
2016,08,12,10,20,21.60
2016,08,12,10,21,21.60
2016,08,12,10,22,21.60
2016,08,12,10,23,21.60
2016,08,12,10,24,21.60
2016,08,12,10,25,21.60
2016,08,12,10,26,21.60
2016,08,12,10,27,21.70
2016,08,12,10,28,21.70
2016,08,12,10,29,21.60
2016,08,12,10,30,21.60
2016,08,12,10,31,21.60
2016,08,12,10,32,21.60
2016,08,12,10,33,21.60
2016,08,12,10,34,21.60
2016,08,12,10,35,21.70
2016,08,12,10,36,21.70
2016,08,12,10,37,21.70
2016,08,12,10,38,21.80
2016,08,12,10,39,21.80
2016,08,12,10,40,21.80
2016,08,12,10,41,21.90
2016,08,12,10,42,21.90
2016,08,12,10,43,22.00
2016,08,12,10,44,22.10
2016,08,12,10,45,22.20
2016,08,12,10,46,22.20
2016,08,12,10,47,22.20
2016,08,12,10,48,22.20
2016,08,12,10,49,22.20
2016,08,12,10,50,22.20
2016,08,12,10,51,22.20
2016,08,12,10,52,22.20
2016,08,12,10,53,22.20
2016,08,12,10,54,22.10
2016,08,12,10,55,22.10
2016,08,12,10,56,22.10
2016,08,12,10,57,22.10
2016,08,12,10,58,22.10
2016,08,12,10,59,22.10
2016,08,12,11,00,22.10
2016,08,12,11,01,22.10
2016,08,12,11,02,22.10
2016,08,12,11,03,22.20
2016,08,12,11,04,22.20
2016,08,12,11,05,22.20
2016,08,12,11,06,22.20
2016,08,12,11,07,22.20
2016,08,12,11,08,22.20
2016,08,12,11,09,22.30
2016,08,12,11,10,22.30
2016,08,12,11,11,22.30
2016,08,12,11,12,22.40
2016,08,12,11,13,22.40
2016,08,12,11,14,22.50
2016,08,12,11,15,22.50
2016,08,12,11,16,22.50
2016,08,12,11,17,22.50
2016,08,12,11,18,22.60
2016,08,12,11,19,22.60
2016,08,12,11,20,22.60
2016,08,12,11,21,22.60
2016,08,12,11,22,22.70
2016,08,12,11,23,22.70
2016,08,12,11,24,22.70
2016,08,12,11,25,22.60
2016,08,12,11,26,22.60
2016,08,12,11,27,22.60
2016,08,12,11,28,22.50
2016,08,12,11,29,22.40
2016,08,12,11,30,22.40
2016,08,12,11,31,22.40
2016,08,12,11,32,22.40
2016,08,12,11,33,22.30
2016,08,12,11,34,22.30
2016,08,12,11,35,22.30
2016,08,12,11,36,22.30
2016,08,12,11,37,22.30
2016,08,12,11,38,22.30
2016,08,12,11,39,22.30
2016,08,12,11,40,22.30
2016,08,12,11,41,22.30
2016,08,12,11,42,22.30
2016,08,12,11,43,22.40
2016,08,12,11,44,22.40
2016,08,12,11,45,22.40
2016,08,12,11,46,22.50
2016,08,12,11,47,22.50
2016,08,12,11,48,22.60
2016,08,12,11,49,22.60
2016,08,12,11,50,22.60
2016,08,12,11,51,22.70
2016,08,12,11,52,22.70
2016,08,12,11,53,22.80
2016,08,12,11,54,22.80
2016,08,12,11,55,22.90
2016,08,12,11,56,22.90
2016,08,12,11,57,23.00
2016,08,12,11,58,23.10
2016,08,12,11,59,23.10
2016,08,12,12,00,23.20
2016,08,12,12,01,23.20
2016,08,12,12,02,23.20
2016,08,12,12,03,23.20
2016,08,12,12,04,23.20
2016,08,12,12,05,23.20
2016,08,12,12,06,23.20
2016,08,12,12,07,23.20
2016,08,12,12,08,23.20
2016,08,12,12,09,23.20
2016,08,12,12,10,23.30
2016,08,12,12,11,23.30
2016,08,12,12,12,23.30
2016,08,12,12,13,23.40
2016,08,12,12,14,23.40
2016,08,12,12,15,23.40
2016,08,12,12,16,23.50
2016,08,12,12,17,23.60
2016,08,12,12,18,23.60
2016,08,12,12,19,23.60
2016,08,12,12,20,23.60
2016,08,12,12,21,23.60
2016,08,12,12,22,23.60
2016,08,12,12,23,23.70
2016,08,12,12,24,23.70
2016,08,12,12,25,23.70
2016,08,12,12,26,23.70
2016,08,12,12,27,23.70
2016,08,12,12,28,23.70
2016,08,12,12,29,23.70
2016,08,12,12,30,23.60
2016,08,12,12,31,23.60
2016,08,12,12,32,23.60
2016,08,12,12,33,23.60
2016,08,12,12,34,23.60
2016,08,12,12,35,23.60
2016,08,12,12,36,23.60
2016,08,12,12,37,23.60
2016,08,12,12,38,23.60
2016,08,12,12,39,23.70
2016,08,12,12,40,23.70
2016,08,12,12,41,23.60
2016,08,12,12,42,23.60
2016,08,12,12,43,23.60
2016,08,12,12,44,23.60
2016,08,12,12,45,23.70
2016,08,12,12,46,23.70
2016,08,12,12,47,23.70
2016,08,12,12,48,23.80
2016,08,12,12,49,23.80
2016,08,12,12,50,23.80
2016,08,12,12,51,23.80
2016,08,12,12,52,23.90
2016,08,12,12,53,24.00
2016,08,12,12,54,24.10
2016,08,12,12,55,24.10
2016,08,12,12,56,24.10
2016,08,12,12,57,24.20
2016,08,12,12,58,24.20
2016,08,12,12,59,24.20
2016,08,12,13,00,24.20
2016,08,12,13,01,24.20
2016,08,12,13,02,24.20
2016,08,12,13,03,24.20
2016,08,12,13,04,24.20
2016,08,12,13,05,24.20
2016,08,12,13,06,24.20
2016,08,12,13,07,24.30
2016,08,12,13,08,24.30
2016,08,12,13,09,24.30
2016,08,12,13,10,24.30
2016,08,12,13,11,24.30
2016,08,12,13,12,24.40
2016,08,12,13,13,24.40
2016,08,12,13,14,24.40
2016,08,12,13,15,24.40
2016,08,12,13,16,24.30
2016,08,12,13,17,24.40
2016,08,12,13,18,24.40
2016,08,12,13,19,24.40
2016,08,12,13,20,24.50
2016,08,12,13,21,24.60
2016,08,12,13,22,24.60
2016,08,12,13,23,24.60
2016,08,12,13,24,24.70
2016,08,12,13,25,24.60
2016,08,12,13,26,24.60
2016,08,12,13,27,24.60
2016,08,12,13,28,24.60
2016,08,12,13,29,24.60
2016,08,12,13,30,24.60
2016,08,12,13,31,24.60
2016,08,12,13,32,24.70
2016,08,12,13,33,24.70
2016,08,12,13,34,24.70
2016,08,12,13,35,24.70
2016,08,12,13,36,24.70
2016,08,12,13,37,24.70
2016,08,12,13,38,24.80
2016,08,12,13,39,24.80
2016,08,12,13,40,24.90
2016,08,12,13,41,24.90
2016,08,12,13,42,24.90
2016,08,12,13,43,24.90
2016,08,12,13,44,24.90
2016,08,12,13,45,25.00
2016,08,12,13,46,25.00
2016,08,12,13,47,25.10
2016,08,12,13,48,25.10
2016,08,12,13,49,25.10
2016,08,12,13,50,25.10
2016,08,12,13,51,25.10
2016,08,12,13,52,25.10
2016,08,12,13,53,25.10
2016,08,12,13,54,25.20
2016,08,12,13,55,25.10
2016,08,12,13,56,25.10
2016,08,12,13,57,25.10
2016,08,12,13,58,25.10
2016,08,12,13,59,25.10
2016,08,12,14,00,25.10
2016,08,12,14,01,25.10
2016,08,12,14,02,25.10
2016,08,12,14,03,25.20
2016,08,12,14,04,25.30
2016,08,12,14,05,25.30
2016,08,12,14,06,25.30
2016,08,12,14,07,25.30
2016,08,12,14,08,25.30
2016,08,12,14,09,25.40
2016,08,12,14,10,25.40
2016,08,12,14,11,25.40
2016,08,12,14,12,25.40
2016,08,12,14,13,25.40
2016,08,12,14,14,25.50
2016,08,12,14,15,25.50
2016,08,12,14,16,25.60
2016,08,12,14,17,25.60
2016,08,12,14,18,25.70
2016,08,12,14,19,25.70
2016,08,12,14,20,25.80
2016,08,12,14,21,25.90
2016,08,12,14,22,25.90
2016,08,12,14,23,26.00
2016,08,12,14,24,26.00
2016,08,12,14,25,26.10
2016,08,12,14,26,26.10
2016,08,12,14,27,26.20
2016,08,12,14,28,26.30
2016,08,12,14,29,26.30
2016,08,12,14,30,26.40
2016,08,12,14,31,26.50
2016,08,12,14,32,26.60
2016,08,12,14,33,26.60
2016,08,12,14,34,26.60
2016,08,12,14,35,26.60
2016,08,12,14,36,26.60
2016,08,12,14,37,26.60
2016,08,12,14,38,26.60
2016,08,12,14,39,26.60
2016,08,12,14,40,26.50
2016,08,12,14,41,26.60
2016,08,12,14,42,26.60
2016,08,12,14,43,26.60
2016,08,12,14,44,26.60
2016,08,12,14,45,26.60
2016,08,12,14,46,26.60
2016,08,12,14,47,26.60
2016,08,12,14,48,26.70
2016,08,12,14,49,26.80
2016,08,12,14,50,26.90
2016,08,12,14,51,26.90
2016,08,12,14,52,27.00
2016,08,12,14,53,27.10
2016,08,12,14,54,27.10
2016,08,12,14,55,27.20
2016,08,12,14,56,27.20
2016,08,12,14,57,27.30
2016,08,12,14,58,27.30
2016,08,12,14,59,27.30
2016,08,12,15,00,27.40
2016,08,12,15,01,27.40
2016,08,12,15,02,27.50
2016,08,12,15,03,27.50
2016,08,12,15,04,27.50
2016,08,12,15,05,27.50
2016,08,12,15,06,27.50
2016,08,12,15,07,27.50
2016,08,12,15,08,27.50
2016,08,12,15,09,27.40
2016,08,12,15,10,27.40
2016,08,12,15,11,27.40
2016,08,12,15,12,27.40
2016,08,12,15,13,27.30
2016,08,12,15,14,27.30
2016,08,12,15,15,27.30
2016,08,12,15,16,27.30
2016,08,12,15,17,27.30
2016,08,12,15,18,27.30
2016,08,12,15,19,27.30
2016,08,12,15,20,27.30
2016,08,12,15,21,27.20
2016,08,12,15,22,27.20
2016,08,12,15,23,27.20
2016,08,12,15,24,27.20
2016,08,12,15,25,27.20
2016,08,12,15,26,27.20
2016,08,12,15,27,27.20
2016,08,12,15,28,27.30
2016,08,12,15,29,27.30
2016,08,12,15,30,27.30
2016,08,12,15,31,27.30
2016,08,12,15,32,27.30
2016,08,12,15,33,27.30
2016,08,12,15,34,27.30
2016,08,12,15,35,27.30
2016,08,12,15,36,27.30
2016,08,12,15,37,27.30
2016,08,12,15,38,27.30
2016,08,12,15,39,27.20
2016,08,12,15,40,27.20
2016,08,12,15,41,27.20
2016,08,12,15,42,27.20
2016,08,12,15,43,27.20
2016,08,12,15,44,27.20
2016,08,12,15,45,27.20
2016,08,12,15,46,27.30
2016,08,12,15,47,27.30
2016,08,12,15,48,27.30
2016,08,12,15,49,27.40
2016,08,12,15,50,27.40
2016,08,12,15,51,27.40
2016,08,12,15,52,27.50
2016,08,12,15,53,27.50
2016,08,12,15,54,27.40
2016,08,12,15,55,27.40
2016,08,12,15,56,27.40
2016,08,12,15,57,27.40
2016,08,12,15,58,27.40
2016,08,12,15,59,27.40
2016,08,12,16,00,27.40
2016,08,12,16,01,27.40
2016,08,12,16,02,27.40
2016,08,12,16,03,27.40
2016,08,12,16,04,27.40
2016,08,12,16,05,27.40
2016,08,12,16,06,27.50
2016,08,12,16,07,27.50
2016,08,12,16,08,27.50
2016,08,12,16,09,27.50
2016,08,12,16,10,27.60
2016,08,12,16,11,27.60
2016,08,12,16,12,27.60
2016,08,12,16,13,27.60
2016,08,12,16,14,27.70
2016,08,12,16,15,27.70
2016,08,12,16,16,27.80
2016,08,12,16,17,27.80
2016,08,12,16,18,27.80
2016,08,12,16,19,27.80
2016,08,12,16,20,27.80
2016,08,12,16,21,27.80
2016,08,12,16,22,27.90
2016,08,12,16,23,28.00
2016,08,12,16,24,28.00
2016,08,12,16,25,28.10
2016,08,12,16,26,28.10
2016,08,12,16,27,28.20
2016,08,12,16,28,28.20
2016,08,12,16,29,28.20
2016,08,12,16,30,28.20
2016,08,12,16,31,28.20
2016,08,12,16,32,28.20
2016,08,12,16,33,28.20
2016,08,12,16,34,28.30
2016,08,12,16,35,28.30
2016,08,12,16,36,28.20
2016,08,12,16,37,28.20
2016,08,12,16,38,28.20
2016,08,12,16,39,28.20
2016,08,12,16,40,28.20
2016,08,12,16,41,28.20
2016,08,12,16,42,28.20
2016,08,12,16,43,28.20
2016,08,12,16,44,28.30
2016,08,12,16,45,28.40
2016,08,12,16,46,28.40
2016,08,12,16,47,28.40
2016,08,12,16,48,28.40
2016,08,12,16,49,28.40
2016,08,12,16,50,28.50
2016,08,12,16,51,28.50
2016,08,12,16,52,28.40
2016,08,12,16,53,28.40
2016,08,12,16,54,28.40
2016,08,12,16,55,28.40
2016,08,12,16,56,28.40
2016,08,12,16,57,28.50
2016,08,12,16,58,28.50
2016,08,12,16,59,28.50
2016,08,12,17,00,28.60
2016,08,12,17,01,28.50
2016,08,12,17,02,28.50
2016,08,12,17,03,28.50
2016,08,12,17,04,28.40
2016,08,12,17,05,28.40
2016,08,12,17,06,28.40
2016,08,12,17,07,28.40
2016,08,12,17,08,28.40
2016,08,12,17,09,28.50
2016,08,12,17,10,28.50
2016,08,12,17,11,28.50
2016,08,12,17,12,28.60
2016,08,12,17,13,28.60
2016,08,12,17,14,28.60
2016,08,12,17,15,28.60
2016,08,12,17,16,28.60
2016,08,12,17,17,28.60
2016,08,12,17,18,28.50
2016,08,12,17,19,28.50